Overview Statistics Trail Chart Weather Telemetry Raw packets
 

This is the latest recevied weather packets stored in our database for station/object WA6ODQ-13. If no packets are shown the sender has not sent any weather packets the latest 10 day(s).

<< 108 109 110 111 112 113 114 >>
Time Temp. Humidity Pressure Rain* Wind** Luminosity Snow
1787842818 20° C 76% 1011.9 hPa 0 mm - 28 W/m² -
1787842513 19.44° C 77% 1011.6 hPa 0 mm - 27 W/m² -
1787842213 18.89° C 77% 1011.8 hPa 0 mm - 26 W/m² -
1787841908 18.89° C 78% 1011.8 hPa 0 mm - 25 W/m² -
1787841604 18.89° C 78% 1011.6 hPa 0 mm - 24 W/m² -
1787841302 18.89° C 78% 1011.5 hPa 0 mm - 23 W/m² -
1787840997 18.89° C 78% 1011.4 hPa 0 mm - 22 W/m² -
1787840693 18.89° C 76% 1011.6 hPa 0 mm - 21 W/m² -
1787840388 18.33° C 76% 1011.3 hPa 0 mm - 20 W/m² -
1787840083 18.33° C 77% 1011.4 hPa 0 mm - 18 W/m² -
1787839778 17.78° C 78% 1011.4 hPa 0 mm - 17 W/m² -
1787839478 17.78° C 79% 1011.1 hPa 0 mm - 15 W/m² -
1787839177 18.33° C 79% 1011.3 hPa 0 mm - 13 W/m² -
1787838876 17.78° C 79% 1011.1 hPa 0 mm - 11 W/m² -
1787838571 17.78° C 79% 1011 hPa 0 mm - 9 W/m² -
1787838270 18.33° C 78% 1010.9 hPa 0 mm - 7 W/m² -
1787837968 17.78° C 78% 1011.1 hPa 0 mm - 5 W/m² -
1787837663 17.78° C 78% 1010.9 hPa 0 mm - 3 W/m² -
1787837358 17.78° C 78% 1010.9 hPa 0 mm - 2 W/m² -
1787837053 17.78° C 77% 1010.7 hPa 0 mm - 1 W/m² -
1787836752 17.78° C 77% 1010.9 hPa 0 mm - 0 W/m² -
1787836448 17.78° C 77% 1010.6 hPa 0 mm - 0 W/m² -
1787836143 17.78° C 77% 1010.5 hPa 0 mm - 0 W/m² -
1787835838 18.33° C 76% 1010.6 hPa 0 mm - 0 W/m² -
1787835537 18.33° C 76% 1010.6 hPa 0 mm - 0 W/m² -

* Rain latest hour (hover to see other rain measurements)
** Current wind speed in m/s (hover to see current wind gust speed)